Flagstaff Pulliam Airport
KFLG : now visible

Airfield :











YOU CAN JOIN US ON...

 
LOGIN :

Register | Disclaimer

   EN    FR    IT 

 









Legend :    VFR   Marginal VFR   IFR   Intensive IFR   Very Intensive IFR
Visi :
Ceiling :
>= 8 km
>= 3000ft
5 to 8 km
1000 to 3000 ft
1500m to 5 km
500 to 1000 ft
800 to 1500m
200 to 500 ft
< 800m
< 200 ft
Symbols :   Thunderstorms  Fog  Heavy snow  Heavy precipitations  Wind > 20 kt






- Airport Elevation : 7014 ft
- IATA code : FLG


KFLG - Flagstaff Pulliam

CURRENT METAR :
  • 130257Z 21010KT 10SM CLR 12/M06 A2997 RMK AO2 SLP071 T01221061 53010

EXPIRED METARs :
  • 130157Z 21006KT 10SM CLR 13/M05 A2995 RMK AO2 SLP081 T01331050
  • 130057Z 24012KT 10SM CLR 16/M06 A2994 RMK AO2 SLP082 T01561056

TAF KFLG
Valid from the 13 at 02:00 until the 14 at 00:00 UTC


130204Z 1302/1324 22006KT P6SM SCT250
FM131700 21016G27KT P6SM FEW250
KZAB FIR / North America



MET'MAP, your aeronautical weather chart ! - Copyright ORBIFLY December 2007 - Disclaimer

ORBIFLY MET'MAP TEAM :

Programming & Development : Alexandra Zaïnal
Concept & original design : Baudouin d'Aumeries
Assistance for programming : Marc-Olivier Méhu
Technical & hardware support : Manuel Goepfert

Contact : metmap@orbifly.com




SOURCES & CREDITS :

   NOAA       Earth
Advisory